Location: Kalberh�ni
(46.4610°N, 7.2453°E)
Time: 20:39:25
(UTC+00:00)

Cosmos 1626 - Pass Details

Date: 29 October 2021
Orbit: 487 x 492 km, 82.5° (Epoch: 03 December)

Event Time Altitude Azimuth Distance (km) Brightness Sun altitude
Exits shadow 03:28:10 11° 14° (NNE) 1,668 5.0 -28.0°
Drops below altitude 10° 03:28:20 - 14° (NNE) 1,738 5.1 -28.0°
Sets 03:30:22 0° 12° (NNE) 2,586 6.0 -27.6°
